STARLINK-34249 (65376 NORAD) Tracking and Keplerian Element Data

This shows tracking and keplerian element data for the satellite.

Feedback or suggestion? Click here.




ElementValue
Catalog65376
NameSTARLINK-34249
Epoch Orbit1800
Epoch Day354.20931365
Epoch Year2025
RAAN177.5405
Inclination53.1572
Eccentricity7.51E-05
Argument of Perigee75.4149
Mean Anonmoly284.6935
Mean Motion15.30209141
Decay Rate0.00018169
L11 65376U 25190AB 25354.20931365 .00018169 00000+0 62388-3 0 9996
L22 65376 53.1572 177.5405 0000751 75.4149 284.6935 15.30209141 18006



Live tracking and technical data element details for STARLINK-34249 (NORAD 65376). STARLINK-34249 can be tracked NOW for your location showing map with azimuth and elevation plus other details from your city location.







IsCatalogInMostPopularTable: catalog: 65376, numindb: 2
Update: records affected: 1



GetName: 65376 STARLINK-34249

Hit Count: updated at: Tue, 10 Feb 2026 03:08:19 GMT